Klamath Falls, OR

5:04 PM PST on February 24, 2018 (GMT -0800)
Klamath Falls International

Weather History for KLMT - May, 2013

Change the Weather History Date:

Thursday, May 2, 2013

  Actual Average Record
Temperature  
Mean Temperature 54 °F 48 °F  
Max Temperature 74 °F 61 °F 81 °F (1966)
Min Temperature 33 °F 34 °F 23 °F (1955)
Degree Days  
Heating Degree Days 11 17  
Month to date heating degree days 28 35  
Since 1 July heating degree days 6092 6354  
Cooling Degree Days 0 0  
Month to date cooling degree days 0 0  
Year to date cooling degree days 0 0  
Growing Degree Days 4 (Base 50)    
Moisture  
Dew Point 17 °F    
Average Humidity 26    
Maximum Humidity 65    
Minimum Humidity 9    
Precipitation  
Precipitation 0.00 in 0.07 in 0.33 in (1931)
Month to date precipitation 0.00 0.14  
Year to date precipitation 2.53 6.55  
Sea Level Pressure  
Sea Level Pressure 30.30 in    
Wind  
Wind Speed 6 mph (ENE)    
Max Wind Speed 16 mph    
Max Gust Speed 21 mph    
Visibility 10 miles    
Events      
T = Trace of Precipitation, MM = Missing Value Source: NWS Daily Summary

Daily Weather History Graph

Daily Weather History Graph

Search for Another Location

Airport or City:

Trip Planner

Search our weather history database for the weather conditions in past years. The results will help you decide how hot, cold, wet, or windy it might be!

Date:

Astronomy

May. 02, 2013 Rise Set
Actual Time 6:00 AM PDT 8:07 PM PDT
Civil Twilight 5:30 AM PDT 8:38 PM PDT
Nautical Twilight 4:52 AM PDT 9:16 PM PDT
Astronomical Twilight 4:11 AM PDT 9:57 PM PDT
Moon 1:59 AM PDT (5/2) 12:55 PM PDT (5/2)
Length of Visible Light 15h 08m
Length of Day
14h 06m
Waning Gibbous, 46% of the Moon is Illuminated
May 2
Waning Gibbous
May 9
New
May 17
First Quarter
May 24
Full
May 31
Last Quarter

Hourly Weather History & Observations

Time (PDT) Temp. Windchill Dew Point Humidity Pressure Visibility Wind Dir Wind Speed Gust Speed Precip Events Conditions
12:53 AM 48.0 °F - 12.0 °F 24% 30.41 in 10.0 mi Calm Calm - N/A   Clear
1:53 AM 46.0 °F 43.9 °F 12.9 °F 26% 30.41 in 10.0 mi ENE 4.6 mph - N/A   Clear
2:53 AM 45.0 °F 38.5 °F 14.0 °F 29% 30.40 in 10.0 mi ENE 13.8 mph - N/A   Clear
3:53 AM 43.0 °F 36.8 °F 15.1 °F 32% 30.39 in 10.0 mi ENE 11.5 mph - N/A   Clear
4:53 AM 43.0 °F 36.4 °F 12.0 °F 28% 30.37 in 10.0 mi ENE 12.7 mph - N/A   Clear
5:53 AM 36.0 °F 33.3 °F 14.0 °F 41% 30.40 in 10.0 mi East 3.5 mph - N/A   Clear
6:53 AM 39.9 °F 36.7 °F 15.1 °F 36% 30.40 in 10.0 mi ENE 4.6 mph - N/A   Clear
7:53 AM 48.9 °F - 15.1 °F 26% 30.40 in 10.0 mi ENE 10.4 mph - N/A   Clear
8:53 AM 52.0 °F - 14.0 °F 22% 30.40 in 9.0 mi ENE 10.4 mph - N/A   Clear
9:53 AM 55.9 °F - 12.0 °F 18% 30.38 in 10.0 mi ENE 10.4 mph - N/A   Clear
10:53 AM 60.1 °F - 12.0 °F 15% 30.35 in 10.0 mi East 6.9 mph - N/A   Clear
12:53 PM 66.0 °F - 10.9 °F 12% 30.29 in 10.0 mi Calm Calm - N/A   Clear
1:53 PM 70.0 °F - 14.0 °F 12% 30.27 in 10.0 mi SSE 10.4 mph 17.3 mph N/A   Clear
2:53 PM 71.1 °F - 12.0 °F 10% 30.24 in 10.0 mi SSW 4.6 mph 18.4 mph N/A   Clear
3:53 PM 73.0 °F - 12.9 °F 10% 30.22 in 10.0 mi South 6.9 mph - N/A   Clear
4:53 PM 73.0 °F - 14.0 °F 11% 30.21 in 10.0 mi Calm Calm - N/A   Clear
5:53 PM 73.0 °F - 16.0 °F 11% 30.22 in 10.0 mi WNW 5.8 mph - N/A   Clear
6:53 PM 70.0 °F - 19.9 °F 15% 30.20 in 10.0 mi NNW 10.4 mph - N/A   Clear
7:53 PM 61.0 °F - 26.1 °F 26% 30.19 in 10.0 mi NNW 6.9 mph - N/A   Clear
8:53 PM 53.1 °F - 27.0 °F 37% 30.20 in 10.0 mi NW 5.8 mph - N/A   Clear
9:53 PM 48.9 °F - 28.9 °F 46% 30.22 in 10.0 mi Calm Calm - N/A   Clear
10:53 PM 44.1 °F 42.5 °F 33.1 °F 65% 30.22 in 10.0 mi Variable 3.5 mph - N/A   Clear
11:53 PM 48.9 °F - 34.0 °F 56% 30.19 in 10.0 mi West 5.8 mph - N/A   Clear